Wind_Speed
36 21 16 14 12 8 2 6 7 6 8 10 12 15 19 22 24 25 27 26 28 29 31 32 32 33 34 34 35 35 37 33 30 31 33 36 39 41 40 39 31 33 43 51 61
32 17 17 16 14 11 7 9 9 5 4 6 8 9 12 16 19 21 23 25 26 27 28 30 31 32 33 34 37 38 38 34 32 32 32 33 41 38 29 35 38 37 37 33 50
29 19 15 17 15 12 11 12 10 7 4 4 6 7 8 10 13 19 22 23 25 27 28 29 31 33 33 35 35 37 37 35 36 36 33 30 38 36 28 36 35 39 40 35 37
26 24 16 12 14 13 11 11 9 6 4 2 3 4 6 7 7 11 16 19 23 27 29 31 32 34 35 36 36 40 40 40 39 39 37 37 36 45 38 36 31 37 44 41 40
23 23 22 17 8 9 9 8 6 5 3 2 1 4 6 7 4 14 14 16 18 21 25 28 32 34 35 37 38 40 40 41 41 42 42 39 36 46 48 41 40 41 40 38 38
22 20 20 19 18 8 5 4 4 3 2 2 1 2 5 2 7 8 10 13 16 19 23 25 29 33 35 34 36 37 41 42 43 43 44 45 43 44 43 56 39 37 48 50 43
20 18 18 15 15 15 11 6 4 3 4 4 5 6 8 7 8 12 12 14 16 17 19 23 27 29 32 34 36 39 43 41 39 39 42 46 49 43 46 55 55 63 54 59 54
16 17 15 14 13 12 11 9 7 6 4 5 6 8 10 12 12 12 16 17 19 19 20 22 23 26 30 33 36 40 41 40 35 36 39 37 45 39 40 53 52 57 61 55 55
13 12 13 12 11 11 9 8 6 6 5 4 3 3 5 8 9 12 14 17 20 22 24 26 27 27 30 32 34 38 40 41 37 32 33 36 42 38 39 45 49 52 51 51 56
12 11 11 12 9 8 9 8 6 6 6 4 5 5 6 6 10 11 13 16 18 20 22 26 30 31 31 32 31 32 36 37 36 30 26 26 41 37 40 44 44 47 51 52 50
14 12 11 10 11 8 7 7 8 6 8 7 7 7 9 11 12 14 15 17 21 22 24 27 30 29 31 33 33 32 32 31 33 31 24 31 29 35 42 40 42 44 47 46 46
17 13 13 12 12 12 10 8 8 8 10 9 9 10 12 11 14 15 19 22 24 25 27 29 31 30 32 29 28 30 32 33 37 40 33 27 35 44 45 47 45 38 47 45 44
16 16 14 15 14 14 14 13 12 11 11 12 11 11 12 14 17 21 19 23 26 28 31 32 31 30 30 22 29 32 29 39 43 40 42 38 32 30 44 44 36 37 40 40 43
18 16 15 15 16 15 16 17 16 15 16 12 11 14 15 17 18 21 26 25 27 29 32 34 30 29 24 26 34 39 35 38 36 24 36 47 43 48 50 53 48 44 41 44 45
18 17 18 15 15 16 16 18 19 19 19 16 13 16 18 17 22 27 23 25 29 32 34 30 30 27 25 25 30 33 27 34 35 37 39 43 54 53 56 50 43 38 37 45 50
20 18 19 17 14 17 18 18 18 18 20 22 21 17 18 19 20 25 31 33 28 26 28 30 26 18 27 28 28 34 38 31 29 39 38 24 44 46 38 34 31 35 32 34 38
20 19 19 20 16 18 19 18 17 18 17 17 21 20 22 24 28 27 27 33 34 40 36 37 34 33 29 31 34 38 31 39 31 35 36 26 34 32 20 20 23 31 33 36 36
19 20 20 19 19 17 18 18 16 20 20 25 25 21 21 23 26 27 24 30 33 35 43 45 42 31 28 40 40 40 42 40 39 33 24 27 29 18 18 26 20 29 36 41 43
20 20 21 19 18 18 20 17 19 21 26 20 19 25 22 23 28 30 33 37 36 44 45 48 43 33 35 41 40 32 27 25 40 24 28 23 21 28 34 20 20 29 38 42 41
20 18 22 21 20 19 19 20 21 25 24 20 21 23 25 24 28 29 30 39 46 46 46 41 46 39 37 40 40 34 28 27 29 31 28 26 27 34 27 25 29 26 31 36 41
25 24 23 18 20 19 19 20 23 25 26 23 23 24 27 27 30 32 35 37 40 40 41 50 47 37 38 39 36 28 27 29 31 33 36 36 27 29 38 35 28 35 34 36 44
31 27 26 24 20 20 22 21 21 20 25 25 25 26 25 27 30 33 34 33 38 31 30 28 39 37 20 20 22 21 29 29 33 29 28 32 25 28 32 25 24 22 37 42 41
35 32 26 26 24 24 23 21 23 24 22 22 25 26 24 28 31 30 31 31 30 27 26 27 25 29 26 26 23 28 32 29 21 23 31 31 28 23 30 41 39 37 34 42 40
35 33 30 26 27 23 23 24 23 26 25 22 24 25 23 26 28 29 27 28 24 22 18 16 15 17 18 17 20 26 22 23 31 31 28 24 31 30 30 31 33 31 35 33 34
41 36 31 30 29 27 25 24 23 24 24 25 22 23 23 25 26 26 24 23 18 15 16 11 10 14 14 13 13 13 19 19 22 24 26 22 27 24 26 28 35 41 41 40 36
40 38 36 35 31 28 24 27 27 25 22 22 24 18 23 24 25 23 20 18 15 16 14 12 12 13 10 13 14 15 14 14 17 22 29 29 34 35 34 36 37 47 41 38 32
38 41 38 36 34 33 26 26 25 25 21 22 20 16 22 22 22 21 19 15 13 12 13 12 13 12 8 15 15 13 19 18 20 19 25 34 33 34 30 33 32 32 43 53 51
Wind_Direction
7 39 39 20 16 22 74 160 146 179 198 208 219 221 226 230 234 238 240 239 240 239 239 242 239 241 243 242 246 249 245 244 244 242 245 238 230 225 238 247 251 252 243 250 252
16 47 33 30 34 49 84 111 112 136 170 192 208 224 230 232 234 235 239 240 242 241 242 244 244 244 246 246 246 247 244 246 247 246 245 240 225 223 249 246 244 247 264 247 263
16 35 41 34 39 48 74 91 105 118 141 187 207 216 224 231 236 237 239 239 240 244 244 244 247 247 246 246 249 249 246 251 248 249 247 237 231 206 237 258 253 260 260 255 258
20 25 40 44 39 43 59 81 91 101 122 162 219 237 242 241 238 246 245 243 243 243 245 246 246 247 247 246 246 247 246 246 246 246 245 243 227 216 210 250 251 253 250 252 245
25 26 31 41 53 48 42 52 68 76 72 61 273 256 254 261 239 250 256 256 254 252 250 250 250 250 250 248 247 247 245 245 244 245 244 243 238 222 211 222 257 249 257 254 254
17 30 34 36 43 57 61 34 14 9 358 330 306 286 279 290 271 275 269 267 264 261 259 257 255 253 255 255 254 254 252 246 242 242 242 243 238 230 228 212 224 253 252 244 257
8 18 31 39 48 51 54 53 39 345 312 287 285 289 287 283 268 277 270 273 269 268 267 264 264 264 261 256 255 252 250 249 250 255 253 250 244 243 232 221 219 231 247 247 245
2 3 17 26 30 47 60 62 53 38 356 319 295 284 282 275 276 261 272 270 271 269 267 267 264 263 262 261 257 257 257 257 253 256 254 258 250 240 239 237 241 243 248 256 259
347 355 355 9 19 16 28 40 48 48 48 42 10 342 307 310 290 285 277 267 268 269 269 269 267 262 260 260 258 257 259 257 253 257 260 261 252 247 243 239 238 242 247 247 250
329 333 339 342 354 3 1 0 8 358 357 353 344 328 306 304 295 297 293 290 284 279 271 269 269 266 265 263 262 258 257 254 252 243 255 269 256 249 245 247 242 241 244 247 250
328 315 318 319 322 325 333 334 333 325 324 321 316 317 314 310 305 299 297 291 289 289 284 278 271 271 268 267 264 258 252 255 254 236 238 243 251 250 254 247 247 243 247 250 251
321 317 303 303 301 303 305 305 309 308 306 308 302 305 303 298 299 294 297 295 292 289 286 280 280 276 268 264 259 258 254 245 235 232 220 228 223 230 242 255 253 253 248 250 252
317 313 307 296 293 293 293 294 294 298 298 300 293 293 295 300 300 297 289 286 288 289 287 286 283 278 271 259 260 261 248 251 254 244 219 228 221 232 242 249 249 259 259 255 252
314 309 308 299 295 293 292 290 289 290 294 296 290 291 297 297 295 293 295 293 289 288 288 285 288 276 262 249 258 270 266 258 262 255 246 229 239 234 242 254 260 261 250 252 256
312 305 305 303 296 291 288 290 291 292 297 301 289 293 295 297 305 305 302 293 294 290 291 295 295 280 257 258 272 278 283 270 253 246 248 241 237 244 245 255 258 257 245 242 248
314 303 302 300 300 295 289 289 292 294 300 298 299 299 296 299 298 302 307 314 307 299 303 288 294 260 256 253 252 275 278 277 254 252 259 288 251 251 260 266 253 252 258 247 246
318 306 302 298 300 297 292 287 290 291 286 283 291 308 314 317 309 307 309 305 307 297 299 286 281 283 263 270 249 248 260 269 264 251 270 273 266 255 248 224 225 220 242 254 255
316 309 303 301 300 297 292 289 287 281 276 273 289 302 301 296 291 288 285 278 264 273 280 292 287 273 279 278 278 256 247 252 263 267 269 269 269 242 242 241 242 216 245 253 252
314 309 304 299 299 301 297 290 279 276 276 290 285 289 294 293 296 296 290 282 261 269 272 274 274 277 281 289 278 285 270 274 257 254 272 267 271 243 237 204 231 214 225 241 265
307 306 300 302 302 298 293 284 280 278 289 291 291 292 293 295 294 291 290 289 283 275 270 270 279 273 264 276 283 290 278 269 244 255 262 264 274 263 221 194 195 211 237 244 256
308 299 294 293 293 293 289 285 283 280 286 293 291 293 296 302 304 305 305 299 298 298 283 274 273 275 271 270 273 273 258 260 242 243 257 268 262 265 259 265 234 222 222 236 245
303 302 294 297 296 295 296 298 292 280 277 288 291 293 299 304 308 312 313 306 307 306 287 294 271 281 260 240 262 260 256 255 263 241 257 264 253 254 259 250 245 247 227 240 244
298 299 297 296 291 297 297 298 293 290 291 284 289 295 302 308 310 312 313 311 317 306 309 296 285 275 271 282 272 261 256 248 268 241 259 257 258 269 256 259 265 273 265 236 229
297 296 297 290 292 292 290 297 295 293 289 292 287 293 301 308 312 317 320 319 327 316 310 313 308 294 287 270 255 249 255 256 274 250 268 258 266 273 281 265 261 266 257 259 245
300 297 292 288 293 294 296 292 289 284 290 287 290 298 307 313 316 317 320 322 331 338 340 343 323 305 299 286 271 265 249 273 288 257 269 281 269 267 269 262 250 261 267 266 259
300 297 293 288 287 289 294 292 297 292 290 283 291 299 307 312 316 318 320 322 320 328 335 325 311 311 305 285 271 272 274 261 265 254 264 269 266 261 263 269 265 255 257 260 263
301 298 293 285 284 288 292 294 296 294 289 288 292 303 306 312 315 318 318 313 313 321 324 340 325 313 315 286 280 289 278 260 261 252 264 267 278 275 278 262 261 261 266 259 264
Height
5752 5743 5741 5739 5737 5735 5735 5738 5741 5747 5751 5755 5758 5762 5766 5769 5773 5777 5780 5785 5787 5790 5793 5794 5797 5800 5800 5804 5804 5805 5807 5813 5818 5820 5826 5830 5830 5834 5837 5841 5845 5849 5851 5850 5847
5756 5749 5745 5742 5740 5738 5738 5739 5742 5747 5751 5754 5757 5760 5763 5765 5769 5772 5775 5777 5779 5783 5786 5787 5789 5791 5794 5796 5797 5798 5803 5808 5812 5813 5815 5819 5821 5823 5827 5830 5835 5839 5838 5849 5838
5759 5753 5750 5747 5744 5743 5742 5741 5744 5747 5751 5754 5756 5758 5761 5763 5766 5767 5770 5772 5775 5776 5778 5781 5783 5785 5788 5789 5791 5793 5799 5799 5803 5804 5805 5809 5812 5816 5815 5813 5822 5826 5832 5835 5833
5763 5757 5752 5750 5748 5747 5746 5745 5746 5748 5750 5753 5755 5756 5758 5761 5765 5765 5766 5768 5769 5771 5773 5775 5777 5778 5781 5782 5784 5786 5790 5791 5794 5794 5797 5799 5804 5806 5809 5807 5812 5814 5817 5820 5824
5767 5761 5756 5752 5750 5749 5749 5749 5749 5749 5750 5752 5753 5755 5756 5759 5761 5760 5763 5764 5765 5766 5768 5769 5770 5771 5772 5773 5775 5777 5781 5782 5785 5786 5789 5791 5795 5797 5801 5805 5796 5804 5806 5812 5812
5769 5764 5760 5756 5752 5749 5749 5750 5751 5751 5751 5752 5752 5753 5754 5757 5757 5758 5759 5760 5761 5762 5762 5763 5763 5763 5764 5768 5769 5770 5769 5773 5775 5778 5780 5780 5783 5787 5797 5796 5796 5791 5795 5802 5803
5770 5766 5762 5759 5756 5752 5750 5750 5750 5751 5751 5750 5751 5752 5753 5755 5755 5754 5755 5755 5756 5756 5757 5756 5757 5758 5758 5759 5760 5760 5759 5763 5769 5772 5771 5771 5773 5782 5789 5785 5786 5787 5787 5792 5797
5770 5767 5763 5760 5758 5755 5752 5750 5750 5749 5749 5750 5750 5750 5750 5749 5750 5752 5751 5751 5751 5751 5751 5750 5751 5751 5751 5751 5752 5752 5753 5756 5763 5762 5764 5764 5764 5775 5778 5779 5783 5784 5784 5787 5784
5769 5766 5764 5761 5758 5756 5754 5751 5749 5749 5748 5748 5748 5748 5748 5748 5747 5746 5746 5747 5747 5746 5745 5745 5744 5744 5743 5743 5744 5744 5745 5747 5754 5756 5756 5754 5757 5763 5765 5768 5773 5775 5774 5777 5776
5767 5765 5763 5761 5758 5755 5754 5751 5749 5748 5747 5746 5746 5747 5745 5746 5744 5743 5743 5741 5741 5740 5740 5739 5737 5737 5737 5735 5737 5737 5736 5737 5740 5748 5747 5745 5744 5750 5754 5756 5760 5763 5764 5765 5768
5765 5762 5760 5758 5757 5754 5752 5750 5750 5748 5745 5745 5743 5742 5741 5741 5740 5739 5738 5737 5735 5734 5733 5731 5730 5731 5730 5729 5728 5727 5727 5728 5732 5733 5734 5733 5736 5738 5740 5745 5747 5750 5751 5754 5757
5762 5759 5757 5755 5753 5751 5749 5748 5746 5746 5743 5742 5740 5739 5737 5736 5736 5735 5733 5732 5729 5728 5725 5725 5723 5722 5720 5719 5718 5718 5717 5717 5718 5721 5725 5723 5723 5729 5730 5733 5735 5738 5742 5745 5747
5758 5756 5753 5751 5749 5748 5747 5745 5742 5741 5740 5739 5737 5736 5734 5733 5731 5729 5729 5726 5723 5721 5718 5715 5715 5713 5711 5711 5710 5710 5709 5709 5708 5713 5715 5713 5712 5715 5718 5723 5728 5729 5732 5734 5736
5755 5752 5749 5747 5746 5744 5742 5741 5738 5736 5736 5736 5733 5731 5729 5728 5727 5725 5720 5721 5717 5714 5710 5709 5708 5706 5704 5704 5703 5701 5703 5700 5700 5700 5702 5708 5700 5706 5708 5710 5714 5719 5721 5722 5723
5751 5748 5745 5742 5741 5739 5739 5736 5734 5733 5731 5730 5729 5726 5724 5724 5720 5714 5715 5714 5709 5706 5702 5703 5699 5697 5696 5696 5695 5693 5693 5691 5692 5690 5689 5696 5692 5698 5699 5704 5707 5708 5712 5713 5712
5747 5744 5741 5738 5736 5734 5733 5731 5730 5730 5726 5722 5721 5719 5719 5717 5715 5711 5705 5700 5700 5698 5696 5691 5691 5689 5688 5687 5687 5685 5683 5683 5685 5684 5682 5689 5685 5688 5696 5696 5698 5697 5699 5703 5704
5743 5739 5736 5734 5732 5729 5727 5726 5727 5723 5721 5717 5715 5714 5712 5710 5707 5705 5701 5695 5691 5685 5682 5682 5681 5683 5677 5678 5679 5678 5674 5673 5675 5675 5674 5678 5672 5681 5686 5683 5682 5689 5689 5691 5695
5739 5735 5732 5729 5726 5724 5722 5722 5721 5718 5715 5713 5710 5710 5708 5706 5703 5698 5694 5692 5691 5681 5671 5668 5669 5670 5672 5669 5667 5669 5667 5665 5664 5667 5669 5667 5667 5674 5675 5671 5676 5677 5681 5682 5682
5735 5730 5728 5725 5722 5719 5718 5716 5715 5712 5708 5708 5707 5703 5702 5700 5694 5691 5687 5682 5679 5675 5667 5658 5660 5661 5661 5660 5660 5660 5659 5661 5653 5659 5658 5661 5663 5665 5664 5663 5668 5671 5672 5672 5675
5731 5728 5723 5720 5716 5714 5713 5709 5707 5704 5702 5701 5698 5697 5695 5692 5688 5685 5682 5673 5665 5662 5657 5655 5648 5655 5651 5648 5649 5650 5650 5650 5648 5651 5650 5655 5656 5655 5659 5657 5658 5662 5666 5666 5668
5726 5723 5717 5717 5712 5709 5707 5704 5700 5697 5694 5694 5692 5689 5686 5683 5680 5675 5670 5662 5653 5648 5647 5640 5640 5642 5642 5642 5641 5643 5643 5643 5644 5643 5643 5646 5652 5649 5648 5649 5653 5654 5654 5656 5660
5718 5716 5711 5709 5707 5703 5699 5698 5696 5694 5689 5686 5685 5683 5679 5676 5672 5666 5659 5653 5644 5640 5634 5632 5627 5627 5631 5633 5631 5634 5634 5635 5634 5636 5639 5638 5642 5646 5643 5643 5642 5647 5645 5648 5649
5709 5707 5706 5701 5699 5696 5693 5691 5687 5684 5683 5680 5677 5675 5673 5669 5663 5659 5652 5645 5639 5632 5628 5624 5621 5619 5623 5624 5623 5625 5628 5626 5621 5630 5631 5632 5635 5635 5636 5633 5637 5638 5638 5639 5636
5703 5699 5698 5695 5691 5689 5686 5682 5680 5676 5674 5673 5672 5668 5666 5663 5658 5651 5646 5639 5634 5628 5624 5621 5618 5616 5616 5616 5618 5621 5622 5623 5621 5623 5624 5626 5627 5630 5629 5627 5626 5626 5626 5628 5630
5693 5691 5690 5686 5683 5681 5679 5677 5674 5670 5669 5666 5666 5662 5659 5656 5651 5645 5640 5635 5631 5627 5622 5619 5618 5615 5615 5614 5614 5615 5617 5618 5617 5618 5619 5622 5622 5622 5616 5617 5620 5619 5618 5619 5622
5684 5682 5680 5678 5676 5674 5672 5670 5667 5664 5662 5660 5658 5656 5653 5649 5645 5640 5636 5631 5629 5625 5622 5619 5617 5615 5614 5612 5610 5610 5611 5613 5614 5615 5613 5614 5613 5611 5609 5610 5611 5608 5608 5610 5608
5674 5671 5672 5670 5668 5666 5665 5662 5660 5658 5656 5653 5652 5650 5647 5644 5640 5635 5631 5628 5626 5623 5620 5617 5614 5612 5612 5609 5608 5609 5605 5606 5606 5605 5606 5605 5604 5602 5603 5602 5599 5598 5598 5598 5595